GORIZONT 19 [-]

Last updated on Tue Jun 27 2023 00:03:00 GMT+0000 (Coordinated Universal Time)

1 20263U 89081A 23176.80394957 -.00000364 00000+0 00000+0 0 9995 2 20263 13.2709 341.2210 0004648 193.2701 142.4367 1.00267750123590
UTC large
Height (km)
Speed (km/s)
/
Latitude / Longitude
Inclination (degrees)
Orbital Period (minutes)
Azimuth
Elevation
Range (km)
Doppler Factor

Next 0 passes for location: London (51.5072 / 0.1276)

Sorry there are no passes over London.
GORIZONT 19 [-]